This is the latest recevied weather packets stored in our database for station/object KE5YIM-13. If no packets are shown the sender has not sent any weather packets the latest 10 day(s).
| Time | Temp. | Humidity | Pressure | Rain* | Wind** | Luminosity | Snow |
|---|---|---|---|---|---|---|---|
| 1777301607 | 17.78° C | 45% | 1025.2 hPa | 0 mm | - | 704 W/m² | - |
| 1777301304 | 17.22° C | 46% | 1025.2 hPa | 0 mm | - | 695 W/m² | - |
| 1777301001 | 17.78° C | 44% | 1025.3 hPa | 0 mm | - | 685 W/m² | - |
| 1777300698 | 17.22° C | 48% | 1025.5 hPa | 0 mm | - | 673 W/m² | - |
| 1777300396 | 16.67° C | 46% | 1025.3 hPa | 0 mm | - | 661 W/m² | - |
| 1777300094 | 16.67° C | 45% | 1025.4 hPa | 0 mm | - | 652 W/m² | - |
| 1777299789 | 16.67° C | 47% | 1025.3 hPa | 0 mm | - | 638 W/m² | - |
| 1777299487 | 16.67° C | 49% | 1025.4 hPa | 0 mm | - | 625 W/m² | - |
| 1777299185 | 16.11° C | 48% | 1025.4 hPa | 0 mm | - | 614 W/m² | - |
| 1777298882 | 16.11° C | 48% | 1025.3 hPa | 0 mm | - | 599 W/m² | - |
| 1777298579 | 15.56° C | 49% | 1025.5 hPa | 0 mm | - | 586 W/m² | - |
| 1777298275 | 16.11° C | 50% | 1025.3 hPa | 0 mm | - | 572 W/m² | - |
| 1777297970 | 15.56° C | 51% | 1025.1 hPa | 0 mm | - | 558 W/m² | - |
| 1777297667 | 15° C | 52% | 1025.2 hPa | 0 mm | - | 544 W/m² | - |
| 1777297365 | 15.56° C | 52% | 1025.2 hPa | 0 mm | - | 525 W/m² | - |
| 1777297061 | 15.56° C | 52% | 1025.2 hPa | 0 mm | - | 515 W/m² | - |
| 1777296758 | 15.56° C | 53% | 1025.2 hPa | 0 mm | - | 499 W/m² | - |
| 1777296453 | 15.56° C | 54% | 1025 hPa | 0 mm | - | 483 W/m² | - |
| 1777296150 | 15.56° C | 55% | 1025.1 hPa | 0 mm | - | 468 W/m² | - |
| 1777295846 | 15° C | 54% | 1025.1 hPa | 0 mm | - | 452 W/m² | - |
| 1777295544 | 15° C | 54% | 1025.2 hPa | 0 mm | - | 435 W/m² | - |
| 1777295241 | 14.44° C | 56% | 1025 hPa | 0 mm | - | 419 W/m² | - |
| 1777294939 | 14.44° C | 57% | 1025 hPa | 0 mm | - | 423 W/m² | - |
| 1777294634 | 13.89° C | 58% | 1024.8 hPa | 0 mm | - | 420 W/m² | - |
| 1777294331 | 13.89° C | 60% | 1024.9 hPa | 0 mm | - | 438 W/m² | - |
* Rain latest hour (hover to see other rain measurements)
** Current wind speed in m/s (hover to see current wind gust speed)